Location: Marcé
(47.5801°N, 0.3280°W)
Time: 07:20:24
(UTC+01:00)

Vanguard 1 - Pass Details

Date: 08 December 2021
Orbit: 652 x 3830 km, 34.2° (Epoch: 16 January)

Event Time Altitude Azimuth Distance (km) Brightness Sun altitude
Rises 22:28:26 0° 213° (SSW) 6,300 14.2 -52.0°
Reaches altitude 10° 22:32:34 10° 205° (SSW) 5,672 13.9 -52.6°
Enters shadow 22:35:25 17° 198° (SSW) 5,315 13.6 -53.0°
